| time (UTC) | temp F | wind direction | speed knots | gust knots | rain 1hr in | rain 24hr in | rain mn in | humidity % | barometer mb |
| 20260505194804 | 80 | 239 | 4.3 | 7.8 | 0.00 | 0.00 | 0.00 | 25 | 1014.9 |
| 20260505194605 | 79 | 253 | 4.3 | 7.0 | 0.00 | 0.00 | 0.00 | 30 | 1014.9 |
| 20260505194404 | 78 | 259 | 4.3 | 7.0 | 0.00 | 0.00 | 0.00 | 30 | 1014.9 |
| 20260505194204 | 78 | 260 | 5.2 | 7.0 | 0.00 | 0.00 | 0.00 | 30 | 1015.2 |
| 20260505193804 | 77 | 192 | 4.3 | 7.0 | 0.00 | 0.00 | 0.00 | 30 | 1015.3 |
| 20260505193604 | 77 | 173 | 4.3 | 7.0 | 0.00 | 0.00 | 0.00 | 30 | 1015.2 |
| 20260505193405 | 77 | 167 | 4.3 | 10.4 | 0.00 | 0.00 | 0.00 | 29 | 1015.3 |
| 20260505193004 | 77 | 217 | 5.2 | 10.4 | 0.00 | 0.00 | 0.00 | 27 | 1015.1 |
| 20260505192805 | 77 | 229 | 6.1 | 10.4 | 0.00 | 0.00 | 0.00 | 26 | 1015.2 |
| 20260505192604 | 77 | 255 | 6.1 | 10.4 | 0.00 | 0.00 | 0.00 | 25 | 1015.4 |
| 20260505192404 | 77 | 247 | 6.1 | 8.7 | 0.00 | 0.00 | 0.00 | 25 | 1015.2 |
| 20260505192205 | 77 | 233 | 6.1 | 7.8 | 0.00 | 0.00 | 0.00 | 25 | 1015.3 |
| 20260505192004 | 77 | 221 | 5.2 | 7.8 | 0.00 | 0.00 | 0.00 | 24 | 1015.3 |
| 20260505191804 | 77 | 227 | 5.2 | 7.8 | 0.00 | 0.00 | 0.00 | 26 | 1015.2 |
| 20260505191404 | 77 | 220 | 4.3 | 7.0 | 0.00 | 0.00 | 0.00 | 29 | 1015.4 |
| 20260505191205 | 77 | 209 | 4.3 | 7.0 | 0.00 | 0.00 | 0.00 | 30 | 1015.4 |
| 20260505191004 | 76 | 209 | 4.3 | 7.0 | 0.00 | 0.00 | 0.00 | 28 | 1015.4 |
| 20260505190805 | 76 | 191 | 4.3 | 7.0 | 0.00 | 0.00 | 0.00 | 28 | 1015.4 |
| 20260505190604 | 75 | 159 | 5.2 | 8.7 | 0.00 | 0.00 | 0.00 | 27 | 1015.6 |
| 20260505190404 | 75 | 154 | 4.3 | 8.7 | 0.00 | 0.00 | 0.00 | 28 | 1015.6 |
| 20260505190204 | 76 | 179 | 5.2 | 8.7 | 0.00 | 0.00 | 0.00 | 26 | 1015.7 |
| 20260505185805 | 77 | 272 | 6.1 | 8.7 | 0.00 | 0.00 | 0.00 | 26 | 1015.7 |
| 20260505185604 | 76 | 272 | 5.2 | 8.7 | 0.00 | 0.00 | 0.00 | 26 | 1015.7 |
| 20260505185404 | 77 | 266 | 5.2 | 8.7 | 0.00 | 0.00 | 0.00 | 26 | 1015.8 |
| 20260505185204 | 77 | 268 | 4.3 | 8.7 | 0.00 | 0.00 | 0.00 | 26 | 1015.7 |
| 20260505185004 | 77 | 240 | 4.3 | 8.7 | 0.00 | 0.00 | 0.00 | 27 | 1015.7 |
| 20260505184805 | 77 | 178 | 4.3 | 7.0 | 0.00 | 0.00 | 0.00 | 25 | 1015.7 |
| 20260505184604 | 77 | 230 | 5.2 | 7.8 | 0.00 | 0.00 | 0.00 | 26 | 1015.7 |
| 20260505184405 | 77 | 307 | 5.2 | 7.8 | 0.00 | 0.00 | 0.00 | 27 | 1015.9 |
| 20260505184004 | 78 | 300 | 5.2 | 8.7 | 0.00 | 0.00 | 0.00 | 26 | 1015.8 |
| 20260505183805 | 78 | 301 | 5.2 | 8.7 | 0.00 | 0.00 | 0.00 | 26 | 1016.0 |
| 20260505183604 | 78 | 304 | 5.2 | 8.7 | 0.00 | 0.00 | 0.00 | 26 | 1015.7 |
| 20260505183404 | 78 | 273 | 5.2 | 8.7 | 0.00 | 0.00 | 0.00 | 28 | 1015.6 |
| 20260505183004 | 78 | 282 | 4.3 | 8.7 | 0.00 | 0.00 | 0.00 | 28 | 1015.9 |
| 20260505182805 | 78 | 255 | 4.3 | 8.7 | 0.00 | 0.00 | 0.00 | 26 | 1015.7 |
| 20260505182604 | 78 | 202 | 4.3 | 8.7 | 0.00 | 0.00 | 0.00 | 26 | 1015.9 |
| 20260505182405 | 78 | 173 | 4.3 | 8.7 | 0.00 | 0.00 | 0.00 | 26 | 1015.9 |
| 20260505182204 | 78 | 109 | 4.3 | 8.7 | 0.00 | 0.00 | 0.00 | 26 | 1016.1 |
| 20260505182005 | 78 | 119 | 5.2 | 8.7 | 0.00 | 0.00 | 0.00 | 26 | 1015.9 |
| 20260505181804 | 78 | 268 | 6.1 | 10.4 | 0.00 | 0.00 | 0.00 | 27 | 1015.9 |
| 20260505181604 | 77 | 255 | 6.1 | 10.4 | 0.00 | 0.00 | 0.00 | 28 | 1016.2 |
| 20260505181404 | 77 | 288 | 7.0 | 12.2 | 0.00 | 0.00 | 0.00 | 27 | 1016.0 |
| 20260505181204 | 77 | 288 | 7.0 | 12.2 | 0.00 | 0.00 | 0.00 | 26 | 1016.0 |
| 20260505180804 | 77 | 295 | 6.1 | 12.2 | 0.00 | 0.00 | 0.00 | 26 | 1016.1 |
| 20260505180404 | 77 | 262 | 4.3 | 12.2 | 0.00 | 0.00 | 0.00 | 26 | 1016.1 |
| 20260505180004 | 78 | 228 | 4.3 | 8.7 | 0.00 | 0.00 | 0.00 | 25 | 1016.1 |
| 20260505175804 | 78 | 223 | 4.3 | 8.7 | 0.00 | 0.00 | 0.00 | 25 | 1016.3 |
| 20260505175604 | 78 | 227 | 5.2 | 8.7 | 0.00 | 0.00 | 0.00 | 24 | 1016.4 |
| 20260505175404 | 77 | 238 | 6.1 | 10.4 | 0.00 | 0.00 | 0.00 | 25 | 1016.5 |
| 20260505175205 | 77 | 250 | 6.1 | 10.4 | 0.00 | 0.00 | 0.00 | 25 | 1016.4 |
| 20260505175004 | 76 | 260 | 7.0 | 10.4 | 0.00 | 0.00 | 0.00 | 25 | 1016.3 |
| 20260505174805 | 76 | 264 | 7.0 | 10.4 | 0.00 | 0.00 | 0.00 | 24 | 1016.4 |
| 20260505174604 | 75 | 273 | 7.0 | 10.4 | 0.00 | 0.00 | 0.00 | 25 | 1016.5 |
| 20260505174405 | 75 | 280 | 7.0 | 10.4 | 0.00 | 0.00 | 0.00 | 25 | 1016.4 |
| 20260505174204 | 75 | 279 | 6.1 | 9.6 | 0.00 | 0.00 | 0.00 | 25 | 1016.3 |
| 20260505174005 | 74 | 278 | 6.1 | 9.6 | 0.00 | 0.00 | 0.00 | 26 | 1016.6 |
| 20260505173804 | 74 | 278 | 7.0 | 12.2 | 0.00 | 0.00 | 0.00 | 25 | 1016.5 |
| 20260505173604 | 74 | 277 | 7.0 | 12.2 | 0.00 | 0.00 | 0.00 | 26 | 1016.6 |
| 20260505173404 | 73 | 281 | 7.8 | 12.2 | 0.00 | 0.00 | 0.00 | 27 | 1016.5 |
| 20260505172804 | 72 | 282 | 7.0 | 12.2 | 0.00 | 0.00 | 0.00 | 26 | 1016.7 |
| 20260505172404 | 72 | 284 | 7.0 | 10.4 | 0.00 | 0.00 | 0.00 | 26 | 1016.8 |
| 20260505171805 | 72 | 267 | 6.1 | 9.6 | 0.00 | 0.00 | 0.00 | 26 | 1016.9 |
| 20260505171604 | 73 | 272 | 7.0 | 9.6 | 0.00 | 0.00 | 0.00 | 25 | 1016.9 |
| 20260505171404 | 73 | 275 | 6.1 | 9.6 | 0.00 | 0.00 | 0.00 | 28 | 1016.8 |
| 20260505171204 | 73 | 286 | 6.1 | 9.6 | 0.00 | 0.00 | 0.00 | 26 | 1016.7 |
| 20260505170804 | 73 | 283 | 6.1 | 9.6 | 0.00 | 0.00 | 0.00 | 27 | 1016.8 |
| 20260505170604 | 73 | 253 | 6.1 | 8.7 | 0.00 | 0.00 | 0.00 | 30 | 1017.0 |
| 20260505170404 | 73 | 242 | 5.2 | 8.7 | 0.00 | 0.00 | 0.00 | 30 | 1016.8 |
| 20260505170205 | 73 | 238 | 5.2 | 8.7 | 0.00 | 0.00 | 0.00 | 30 | 1016.7 |
| 20260505170004 | 74 | 231 | 5.2 | 7.8 | 0.00 | 0.00 | 0.00 | 30 | 1016.6 |
| 20260505165805 | 74 | 223 | 5.2 | 7.8 | 0.00 | 0.00 | 0.00 | 30 | 1016.7 |
| 20260505165604 | 74 | 230 | 5.2 | 7.0 | 0.00 | 0.00 | 0.00 | 31 | 1016.7 |
| 20260505165204 | 74 | 250 | 5.2 | 7.0 | 0.00 | 0.00 | 0.00 | 31 | 1016.6 |
| 20260505165004 | 74 | 259 | 5.2 | 9.6 | 0.00 | 0.00 | 0.00 | 32 | 1016.6 |
| 20260505164805 | 73 | 268 | 6.1 | 9.6 | 0.00 | 0.00 | 0.00 | 32 | 1016.7 |
| 20260505164604 | 73 | 276 | 7.0 | 13.9 | 0.00 | 0.00 | 0.00 | 33 | 1016.7 |
| 20260505163804 | 71 | 308 | 8.7 | 13.9 | 0.00 | 0.00 | 0.00 | 32 | 1017.0 |
| 20260505163604 | 71 | 314 | 8.7 | 13.0 | 0.00 | 0.00 | 0.00 | 32 | 1017.0 |
| 20260505163205 | 72 | 301 | 7.8 | 13.0 | 0.00 | 0.00 | 0.00 | 31 | 1017.0 |
| 20260505163004 | 72 | 285 | 7.0 | 13.0 | 0.00 | 0.00 | 0.00 | 31 | 1016.9 |
| 20260505162605 | 73 | 264 | 5.2 | 12.2 | 0.00 | 0.00 | 0.00 | 31 | 1017.0 |
| 20260505162404 | 73 | 262 | 5.2 | 12.2 | 0.00 | 0.00 | 0.00 | 31 | 1017.0 |
| 20260505162204 | 73 | 286 | 5.2 | 12.2 | 0.00 | 0.00 | 0.00 | 31 | 1017.1 |
| 20260505161805 | 72 | 281 | 7.0 | 10.4 | 0.00 | 0.00 | 0.00 | 31 | 1017.1 |
| 20260505161604 | 72 | 269 | 6.1 | 10.4 | 0.00 | 0.00 | 0.00 | 32 | 1017.0 |
| 20260505161405 | 72 | 270 | 6.1 | 10.4 | 0.00 | 0.00 | 0.00 | 31 | 1017.2 |
| 20260505161204 | 72 | 260 | 5.2 | 10.4 | 0.00 | 0.00 | 0.00 | 31 | 1017.0 |
| 20260505160804 | 72 | 245 | 5.2 | 8.7 | 0.00 | 0.00 | 0.00 | 33 | 1016.9 |
| 20260505160404 | 71 | 237 | 6.1 | 8.7 | 0.00 | 0.00 | 0.00 | 33 | 1017.2 |
| 20260505160204 | 71 | 225 | 6.1 | 9.6 | 0.00 | 0.00 | 0.00 | 33 | 1017.3 |
| 20260505153204 | 69 | 169 | 5.2 | 8.7 | 0.00 | 0.00 | 0.00 | 41 | 1017.1 |
| 20260505153004 | 69 | 177 | 5.2 | 8.7 | 0.00 | 0.00 | 0.00 | 42 | 1017.0 |
| 20260505152804 | 69 | 177 | 5.2 | 8.7 | 0.00 | 0.00 | 0.00 | 42 | 1017.1 |
| 20260505152605 | 69 | 205 | 5.2 | 9.6 | 0.00 | 0.00 | 0.00 | 41 | 1017.2 |
| 20260505152404 | 69 | 222 | 6.1 | 9.6 | 0.00 | 0.00 | 0.00 | 41 | 1017.2 |
| 20260505152204 | 69 | 232 | 6.1 | 9.6 | 0.00 | 0.00 | 0.00 | 41 | 1017.2 |
| 20260505152005 | 70 | 238 | 6.1 | 9.6 | 0.00 | 0.00 | 0.00 | 41 | 1017.2 |
| 20260505151805 | 70 | 239 | 6.1 | 9.6 | 0.00 | 0.00 | 0.00 | 41 | 1017.3 |
| 20260505151404 | 70 | 236 | 6.1 | 12.2 | 0.00 | 0.00 | 0.00 | 41 | 1017.3 |
| 20260505151205 | 69 | 242 | 6.1 | 12.2 | 0.00 | 0.00 | 0.00 | 42 | 1017.1 |
| 20260505150804 | 69 | 269 | 6.1 | 12.2 | 0.00 | 0.00 | 0.00 | 41 | 1017.3 |
| 20260505150604 | 69 | 256 | 5.2 | 10.4 | 0.00 | 0.00 | 0.00 | 41 | 1017.3 |
| 20260505150404 | 69 | 256 | 4.3 | 8.7 | 0.00 | 0.00 | 0.00 | 42 | 1017.4 |
| 20260505150205 | 69 | 247 | 3.5 | 7.0 | 0.00 | 0.00 | 0.00 | 43 | 1017.5 |
| 20260505140404 | 61 | 86 | 1.7 | 4.3 | 0.00 | 0.00 | 0.00 | 61 | 1017.2 |
| 20260505140204 | 61 | 77 | 1.7 | 2.6 | 0.00 | 0.00 | 0.00 | 60 | 1017.2 |
| 20260505130204 | 56 | 46 | 0.9 | 1.7 | 0.00 | 0.00 | 0.00 | 68 | 1016.9 |
| 20260505125004 | 55 | 298 | 1.7 | 2.6 | 0.00 | 0.00 | 0.00 | 68 | 1016.7 |
| 20260505124805 | 55 | 319 | 1.7 | 2.6 | 0.00 | 0.00 | 0.00 | 69 | 1016.7 |
| 20260505124004 | 55 | 45 | 0.0 | 1.7 | 0.00 | 0.00 | 0.00 | 70 | 1016.5 |
| 20260505123804 | 55 | 0 | 0.0 | 0.0 | 0.00 | 0.00 | 0.00 | 70 | 1016.8 |
| 20260505123605 | 55 | 0 | 0.0 | 0.0 | 0.00 | 0.00 | 0.00 | 70 | 1016.7 |
| 20260505123404 | 54 | 0 | 0.0 | 0.0 | 0.00 | 0.00 | 0.00 | 70 | 1016.7 |
| 20260505123004 | 54 | 0 | 0.0 | 0.0 | 0.00 | 0.00 | 0.00 | 70 | 1016.6 |
| 20260505122804 | 54 | 314 | 0.0 | 1.7 | 0.00 | 0.00 | 0.00 | 70 | 1016.6 |
| 20260505122604 | 53 | 314 | 0.0 | 1.7 | 0.00 | 0.00 | 0.00 | 70 | 1016.7 |
| 20260505122405 | 53 | 314 | 0.0 | 1.7 | 0.00 | 0.00 | 0.00 | 70 | 1016.6 |
| 20260505122204 | 53 | 314 | 0.0 | 1.7 | 0.00 | 0.00 | 0.00 | 70 | 1016.7 |
| 20260505122005 | 53 | 314 | 0.0 | 1.7 | 0.00 | 0.00 | 0.00 | 70 | 1016.6 |
| 20260505121604 | 52 | 0 | 0.0 | 0.0 | 0.00 | 0.00 | 0.00 | 70 | 1016.6 |
| 20260505121404 | 52 | 0 | 0.0 | 0.0 | 0.00 | 0.00 | 0.00 | 72 | 1016.4 |
| 20260505121204 | 52 | 0 | 0.0 | 0.0 | 0.00 | 0.00 | 0.00 | 72 | 1016.6 |
| 20260505121005 | 52 | 314 | 0.0 | 0.9 | 0.00 | 0.00 | 0.00 | 72 | 1016.6 |
| 20260505120804 | 52 | 314 | 0.0 | 1.7 | 0.00 | 0.00 | 0.00 | 72 | 1016.6 |
| 20260505120604 | 52 | 294 | 0.9 | 2.6 | 0.00 | 0.00 | 0.00 | 72 | 1016.6 |
| 20260505120405 | 51 | 291 | 0.9 | 2.6 | 0.00 | 0.00 | 0.00 | 72 | 1016.5 |
| 20260505120005 | 51 | 305 | 0.9 | 2.6 | 0.00 | 0.00 | 0.00 | 73 | 1016.5 |
| 20260505115604 | 51 | 328 | 0.9 | 2.6 | 0.00 | 0.00 | 0.00 | 73 | 1016.4 |
| 20260505115405 | 50 | 334 | 0.9 | 1.7 | 0.00 | 0.00 | 0.00 | 74 | 1016.3 |
| 20260505115204 | 50 | 330 | 0.9 | 1.7 | 0.00 | 0.00 | 0.00 | 74 | 1016.4 |
| 20260505115005 | 50 | 321 | 0.9 | 1.7 | 0.00 | 0.00 | 0.00 | 74 | 1016.3 |
| 20260505114804 | 49 | 314 | 0.9 | 1.7 | 0.00 | 0.00 | 0.00 | 75 | 1016.3 |
| 20260505114604 | 49 | 315 | 0.9 | 1.7 | 0.00 | 0.00 | 0.00 | 75 | 1016.4 |
| 20260505114404 | 49 | 315 | 0.9 | 1.7 | 0.00 | 0.00 | 0.00 | 75 | 1016.4 |
| 20260505114205 | 49 | 314 | 0.9 | 1.7 | 0.00 | 0.00 | 0.00 | 75 | 1016.1 |
| 20260505113804 | 49 | 314 | 0.0 | 1.7 | 0.00 | 0.00 | 0.00 | 75 | 1016.3 |
| 20260505113604 | 49 | 314 | 0.0 | 1.7 | 0.00 | 0.00 | 0.00 | 75 | 1016.3 |
| 20260505113404 | 49 | 294 | 0.9 | 2.6 | 0.00 | 0.00 | 0.00 | 75 | 1016.1 |
| 20260505113005 | 48 | 291 | 0.9 | 2.6 | 0.00 | 0.00 | 0.00 | 75 | 1016.2 |
| 20260505112805 | 48 | 290 | 0.9 | 2.6 | 0.00 | 0.00 | 0.00 | 75 | 1016.1 |
| 20260505112405 | 48 | 275 | 0.0 | 2.6 | 0.00 | 0.00 | 0.00 | 75 | 1016.2 |
| 20260505112204 | 48 | 314 | 0.0 | 1.7 | 0.00 | 0.00 | 0.00 | 74 | 1016.1 |
| 20260505112005 | 48 | 314 | 0.9 | 1.7 | 0.00 | 0.00 | 0.00 | 75 | 1016.0 |
| 20260505111804 | 48 | 314 | 0.9 | 1.7 | 0.00 | 0.00 | 0.00 | 75 | 1016.0 |
| 20260505111604 | 48 | 314 | 0.9 | 1.7 | 0.00 | 0.00 | 0.00 | 75 | 1016.2 |
| 20260505111404 | 48 | 315 | 1.7 | 1.7 | 0.00 | 0.00 | 0.00 | 75 | 1015.9 |
| 20260505111204 | 48 | 315 | 0.9 | 1.7 | 0.00 | 0.00 | 0.00 | 75 | 1015.9 |
| 20260505111004 | 48 | 314 | 0.9 | 1.7 | 0.00 | 0.00 | 0.00 | 75 | 1015.9 |
| 20260505110404 | 48 | 314 | 0.9 | 2.6 | 0.00 | 0.00 | 0.00 | 75 | 1015.9 |
| 20260505110204 | 48 | 314 | 1.7 | 2.6 | 0.00 | 0.00 | 0.00 | 75 | 1015.9 |
| 20260505102204 | 47 | 0 | 0.0 | 0.0 | 0.00 | 0.00 | 0.00 | 75 | 1015.9 |
| 20260505102004 | 47 | 314 | 0.0 | 1.7 | 0.00 | 0.00 | 0.00 | 75 | 1015.8 |
| 20260505101804 | 47 | 314 | 0.0 | 1.7 | 0.00 | 0.00 | 0.00 | 74 | 1015.9 |
| 20260505101604 | 47 | 314 | 0.0 | 1.7 | 0.00 | 0.00 | 0.00 | 74 | 1015.9 |
| 20260505101405 | 48 | 314 | 0.9 | 1.7 | 0.00 | 0.00 | 0.00 | 74 | 1015.8 |
| 20260505101204 | 48 | 314 | 0.9 | 1.7 | 0.00 | 0.00 | 0.00 | 74 | 1015.9 |
| 20260505101005 | 48 | 314 | 0.9 | 1.7 | 0.00 | 0.00 | 0.00 | 74 | 1016.0 |
| 20260505100605 | 48 | 314 | 0.0 | 1.7 | 0.00 | 0.00 | 0.00 | 74 | 1015.9 |
| 20260505100404 | 48 | 314 | 0.0 | 1.7 | 0.00 | 0.00 | 0.00 | 74 | 1015.8 |
| 20260505100204 | 48 | 314 | 0.0 | 0.9 | 0.00 | 0.00 | 0.00 | 74 | 1016.0 |
| 20260505100004 | 48 | 288 | 0.0 | 1.7 | 0.00 | 0.00 | 0.00 | 74 | 1015.8 |
| 20260505095804 | 48 | 290 | 0.9 | 1.7 | 0.00 | 0.00 | 0.00 | 74 | 1016.0 |
| 20260505095604 | 48 | 300 | 0.9 | 1.7 | 0.00 | 0.00 | 0.00 | 74 | 1015.8 |
| 20260505095404 | 48 | 304 | 0.9 | 1.7 | 0.00 | 0.00 | 0.00 | 74 | 1015.9 |
| 20260505095204 | 48 | 305 | 0.9 | 1.7 | 0.00 | 0.00 | 0.00 | 74 | 1015.8 |
| 20260505095004 | 48 | 309 | 0.9 | 1.7 | 0.00 | 0.00 | 0.00 | 74 | 1015.7 |
| 20260505094805 | 48 | 314 | 0.9 | 1.7 | 0.00 | 0.00 | 0.00 | 74 | 1015.9 |
| 20260505094405 | 49 | 314 | 0.0 | 0.9 | 0.00 | 0.00 | 0.00 | 73 | 1015.9 |
| 20260505094204 | 49 | 314 | 0.0 | 0.9 | 0.00 | 0.00 | 0.00 | 73 | 1015.7 |
| 20260505094005 | 49 | 314 | 0.0 | 1.7 | 0.00 | 0.00 | 0.00 | 73 | 1015.9 |
| 20260505093804 | 49 | 314 | 0.9 | 1.7 | 0.00 | 0.00 | 0.00 | 73 | 1015.8 |
| 20260505093607 | 49 | 314 | 0.9 | 1.7 | 0.00 | 0.00 | 0.00 | 73 | 1015.8 |
| 20260505093404 | 49 | 314 | 0.9 | 1.7 | 0.00 | 0.00 | 0.00 | 73 | 1015.9 |
| 20260505093205 | 49 | 314 | 1.7 | 1.7 | 0.00 | 0.00 | 0.00 | 73 | 1015.9 |
| 20260505093004 | 49 | 314 | 1.7 | 1.7 | 0.00 | 0.00 | 0.00 | 73 | 1015.7 |
| 20260505092805 | 49 | 315 | 1.7 | 1.7 | 0.00 | 0.00 | 0.00 | 73 | 1015.8 |
| 20260505092604 | 49 | 314 | 1.7 | 1.7 | 0.00 | 0.00 | 0.00 | 73 | 1015.8 |
| 20260505092404 | 49 | 315 | 1.7 | 1.7 | 0.00 | 0.00 | 0.00 | 73 | 1015.8 |
| 20260505092204 | 49 | 315 | 1.7 | 1.7 | 0.00 | 0.00 | 0.00 | 73 | 1015.9 |
| 20260505091804 | 49 | 314 | 1.7 | 2.6 | 0.00 | 0.00 | 0.00 | 73 | 1015.9 |
| 20260505091604 | 49 | 314 | 1.7 | 2.6 | 0.00 | 0.00 | 0.00 | 73 | 1015.9 |
| 20260505091404 | 49 | 314 | 1.7 | 2.6 | 0.00 | 0.00 | 0.00 | 73 | 1015.7 |
| 20260505091204 | 49 | 314 | 0.9 | 2.6 | 0.00 | 0.00 | 0.00 | 73 | 1016.0 |
| 20260505091005 | 49 | 314 | 0.9 | 2.6 | 0.00 | 0.00 | 0.00 | 73 | 1015.7 |
| 20260505090804 | 49 | 314 | 0.9 | 2.6 | 0.00 | 0.00 | 0.00 | 73 | 1015.9 |
| 20260505090605 | 49 | 0 | 0.0 | 0.0 | 0.00 | 0.00 | 0.00 | 73 | 1016.0 |
| 20260505090205 | 49 | 0 | 0.0 | 0.0 | 0.00 | 0.00 | 0.00 | 73 | 1016.0 |
| 20260505090004 | 49 | 0 | 0.0 | 0.0 | 0.00 | 0.00 | 0.00 | 73 | 1015.9 |
| 20260505085805 | 49 | 0 | 0.0 | 0.0 | 0.00 | 0.00 | 0.00 | 73 | 1016.0 |
| 20260505085604 | 49 | 0 | 0.0 | 0.0 | 0.00 | 0.00 | 0.00 | 73 | 1016.1 |
| 20260505085204 | 49 | 0 | 0.0 | 0.0 | 0.00 | 0.00 | 0.00 | 73 | 1015.8 |
| 20260505085005 | 49 | 0 | 0.0 | 0.0 | 0.00 | 0.00 | 0.00 | 73 | 1016.0 |
| 20260505084804 | 49 | 0 | 0.0 | 0.0 | 0.00 | 0.00 | 0.00 | 73 | 1015.8 |
| 20260505084404 | 49 | 0 | 0.0 | 0.0 | 0.00 | 0.00 | 0.00 | 73 | 1015.7 |
| 20260505084204 | 49 | 0 | 0.0 | 0.0 | 0.00 | 0.00 | 0.00 | 73 | 1015.8 |
| 20260505084005 | 49 | 0 | 0.0 | 0.0 | 0.00 | 0.00 | 0.00 | 73 | 1015.8 |
| 20260505083804 | 49 | 0 | 0.0 | 0.0 | 0.00 | 0.00 | 0.00 | 73 | 1015.8 |
| 20260505083205 | 49 | 315 | 0.9 | 1.7 | 0.00 | 0.00 | 0.00 | 73 | 1015.8 |
| 20260505082804 | 49 | 314 | 1.7 | 1.7 | 0.00 | 0.00 | 0.00 | 73 | 1015.9 |
| 20260505082004 | 49 | 314 | 1.7 | 2.6 | 0.00 | 0.00 | 0.00 | 72 | 1015.8 |
| 20260505081804 | 49 | 314 | 1.7 | 2.6 | 0.00 | 0.00 | 0.00 | 72 | 1015.8 |
| 20260505081604 | 49 | 314 | 1.7 | 2.6 | 0.00 | 0.00 | 0.00 | 72 | 1015.7 |
| 20260505081405 | 49 | 314 | 1.7 | 2.6 | 0.00 | 0.00 | 0.00 | 73 | 1015.7 |
| 20260505081204 | 49 | 315 | 1.7 | 2.6 | 0.00 | 0.00 | 0.00 | 73 | 1016.0 |
| 20260505081005 | 49 | 315 | 1.7 | 1.7 | 0.00 | 0.00 | 0.00 | 72 | 1015.8 |
| 20260505080804 | 49 | 315 | 1.7 | 1.7 | 0.00 | 0.00 | 0.00 | 72 | 1015.7 |
| 20260505080604 | 49 | 315 | 0.9 | 1.7 | 0.00 | 0.00 | 0.00 | 72 | 1015.9 |
| 20260505080404 | 49 | 314 | 0.9 | 1.7 | 0.00 | 0.00 | 0.00 | 72 | 1015.9 |
| 20260505080204 | 49 | 314 | 0.9 | 1.7 | 0.00 | 0.00 | 0.00 | 72 | 1015.9 |
| 20260505080004 | 49 | 314 | 0.0 | 1.7 | 0.00 | 0.00 | 0.00 | 72 | 1015.9 |
| 20260505075804 | 49 | 0 | 0.0 | 0.0 | 0.00 | 0.00 | 0.00 | 72 | 1015.9 |
| 20260505075605 | 49 | 0 | 0.0 | 0.0 | 0.00 | 0.00 | 0.00 | 72 | 1015.8 |
| 20260505075404 | 49 | 0 | 0.0 | 0.0 | 0.00 | 0.00 | 0.00 | 72 | 1015.7 |
| 20260505075205 | 49 | 0 | 0.0 | 0.0 | 0.00 | 0.00 | 0.00 | 72 | 1015.7 |
| 20260505075004 | 49 | 0 | 0.0 | 0.0 | 0.00 | 0.00 | 0.00 | 72 | 1015.8 |
| 20260505074804 | 50 | 0 | 0.0 | 0.0 | 0.00 | 0.00 | 0.00 | 72 | 1015.9 |
| 20260505074405 | 50 | 0 | 0.0 | 0.0 | 0.00 | 0.00 | 0.00 | 72 | 1015.9 |
| 20260505074005 | 50 | 0 | 0.0 | 0.0 | 0.00 | 0.00 | 0.00 | 71 | 1015.9 |
| 20260505073404 | 50 | 0 | 0.0 | 0.0 | 0.00 | 0.00 | 0.00 | 71 | 1016.1 |
| 20260505073204 | 50 | 0 | 0.0 | 0.0 | 0.00 | 0.00 | 0.00 | 71 | 1016.0 |
| 20260505072804 | 50 | 314 | 0.0 | 1.7 | 0.00 | 0.00 | 0.00 | 71 | 1015.8 |
| 20260505072604 | 50 | 314 | 0.0 | 1.7 | 0.00 | 0.00 | 0.00 | 71 | 1015.8 |
| 20260505072404 | 51 | 314 | 0.9 | 1.7 | 0.00 | 0.00 | 0.00 | 71 | 1015.8 |
| 20260505072204 | 51 | 314 | 0.9 | 1.7 | 0.00 | 0.00 | 0.00 | 71 | 1015.9 |
| 20260505071604 | 51 | 313 | 0.9 | 1.7 | 0.00 | 0.00 | 0.00 | 71 | 1015.9 |
| 20260505071405 | 51 | 306 | 0.9 | 1.7 | 0.00 | 0.00 | 0.00 | 71 | 1016.0 |
| 20260505071204 | 51 | 307 | 1.7 | 2.6 | 0.00 | 0.00 | 0.00 | 71 | 1016.0 |
| 20260505070805 | 51 | 309 | 1.7 | 2.6 | 0.00 | 0.00 | 0.00 | 70 | 1015.8 |
| 20260505070604 | 51 | 317 | 1.7 | 2.6 | 0.00 | 0.00 | 0.00 | 71 | 1015.9 |
| 20260505070405 | 51 | 323 | 1.7 | 2.6 | 0.00 | 0.00 | 0.00 | 71 | 1015.6 |
| 20260505070204 | 51 | 323 | 1.7 | 2.6 | 0.00 | 0.00 | 0.00 | 70 | 1015.8 |
| 20260505070005 | 51 | 323 | 1.7 | 2.6 | 0.00 | 0.00 | 0.00 | 70 | 1015.8 |
| 20260505065804 | 51 | 322 | 1.7 | 2.6 | 0.00 | 0.00 | 0.00 | 70 | 1015.7 |
| 20260505065605 | 51 | 314 | 1.7 | 2.6 | 0.00 | 0.00 | 0.00 | 70 | 1015.7 |
| 20260505065404 | 51 | 314 | 1.7 | 2.6 | 0.00 | 0.00 | 0.00 | 70 | 1015.8 |
| 20260505065205 | 51 | 307 | 1.7 | 2.6 | 0.00 | 0.00 | 0.00 | 70 | 1015.7 |
| 20260505065004 | 51 | 300 | 2.6 | 2.6 | 0.00 | 0.00 | 0.00 | 70 | 1015.8 |
| 20260505064804 | 51 | 300 | 2.6 | 2.6 | 0.00 | 0.00 | 0.00 | 70 | 1015.8 |
| 20260505064605 | 51 | 299 | 2.6 | 2.6 | 0.00 | 0.00 | 0.00 | 70 | 1015.8 |
| 20260505064404 | 51 | 299 | 2.6 | 2.6 | 0.00 | 0.00 | 0.00 | 70 | 1015.7 |
| 20260505064204 | 51 | 307 | 2.6 | 2.6 | 0.00 | 0.00 | 0.00 | 70 | 1016.1 |
| 20260505064005 | 51 | 314 | 2.6 | 2.6 | 0.00 | 0.00 | 0.00 | 71 | 1015.8 |
| 20260505063804 | 51 | 314 | 1.7 | 2.6 | 0.00 | 0.00 | 0.00 | 71 | 1015.8 |
| 20260505063405 | 51 | 314 | 1.7 | 2.6 | 0.00 | 0.00 | 0.00 | 70 | 1015.7 |
| 20260505063204 | 51 | 315 | 1.7 | 2.6 | 0.00 | 0.00 | 0.00 | 70 | 1015.9 |
| 20260505062804 | 51 | 314 | 1.7 | 1.7 | 0.00 | 0.00 | 0.00 | 70 | 1015.7 |
| 20260505062605 | 51 | 314 | 1.7 | 1.7 | 0.00 | 0.00 | 0.00 | 70 | 1015.9 |
| 20260505062404 | 52 | 315 | 1.7 | 1.7 | 0.00 | 0.00 | 0.00 | 70 | 1015.9 |
| 20260505062204 | 52 | 315 | 1.7 | 1.7 | 0.00 | 0.00 | 0.00 | 70 | 1015.8 |
| 20260505062004 | 52 | 315 | 1.7 | 1.7 | 0.00 | 0.00 | 0.00 | 70 | 1015.6 |
| 20260505061804 | 52 | 322 | 1.7 | 1.7 | 0.00 | 0.00 | 0.00 | 70 | 1015.9 |
| 20260505061404 | 52 | 321 | 1.7 | 1.7 | 0.00 | 0.00 | 0.00 | 70 | 1015.9 |
| 20260505061204 | 52 | 321 | 1.7 | 2.6 | 0.00 | 0.00 | 0.00 | 70 | 1015.9 |
| 20260505061005 | 52 | 321 | 1.7 | 2.6 | 0.00 | 0.00 | 0.00 | 70 | 1016.0 |
| 20260505060604 | 52 | 314 | 1.7 | 2.6 | 0.00 | 0.00 | 0.00 | 70 | 1015.9 |
| 20260505060404 | 52 | 314 | 1.7 | 2.6 | 0.00 | 0.00 | 0.00 | 70 | 1015.9 |
| 20260505060204 | 52 | 315 | 1.7 | 2.6 | 0.00 | 0.00 | 0.00 | 70 | 1015.8 |
| 20260505060004 | 52 | 315 | 1.7 | 1.7 | 0.00 | 0.00 | 0.00 | 70 | 1015.8 |
| 20260505055404 | 52 | 322 | 1.7 | 1.7 | 0.00 | 0.00 | 0.00 | 70 | 1015.9 |
| 20260505055004 | 52 | 321 | 1.7 | 2.6 | 0.00 | 0.00 | 0.00 | 70 | 1016.0 |
| 20260505054804 | 52 | 316 | 1.7 | 2.6 | 0.00 | 0.00 | 0.00 | 70 | 1016.0 |
| 20260505054604 | 52 | 312 | 1.7 | 2.6 | 0.00 | 0.00 | 0.00 | 70 | 1015.9 |
| 20260505054404 | 52 | 307 | 1.7 | 2.6 | 0.00 | 0.00 | 0.00 | 70 | 1016.0 |
| 20260505054204 | 52 | 307 | 2.6 | 4.3 | 0.00 | 0.00 | 0.00 | 70 | 1015.9 |
| 20260505054004 | 52 | 301 | 2.6 | 4.3 | 0.00 | 0.00 | 0.00 | 66 | 1015.9 |
| 20260505053804 | 52 | 302 | 2.6 | 4.3 | 0.00 | 0.00 | 0.00 | 66 | 1015.9 |
| 20260505053604 | 52 | 306 | 2.6 | 4.3 | 0.00 | 0.00 | 0.00 | 66 | 1016.0 |
| 20260505053404 | 52 | 313 | 2.6 | 4.3 | 0.00 | 0.00 | 0.00 | 67 | 1015.9 |
| 20260505053205 | 52 | 313 | 2.6 | 4.3 | 0.00 | 0.00 | 0.00 | 67 | 1016.0 |
| 20260505053004 | 52 | 318 | 2.6 | 4.3 | 0.00 | 0.00 | 0.00 | 67 | 1015.8 |
| 20260505052604 | 53 | 310 | 2.6 | 4.3 | 0.00 | 0.00 | 0.00 | 68 | 1016.0 |
| 20260505052404 | 53 | 308 | 2.6 | 4.3 | 0.00 | 0.00 | 0.00 | 67 | 1015.9 |
| 20260505051604 | 53 | 314 | 2.6 | 4.3 | 0.00 | 0.00 | 0.00 | 67 | 1016.1 |
| 20260505051404 | 53 | 315 | 2.6 | 4.3 | 0.00 | 0.00 | 0.00 | 66 | 1016.0 |
| 20260505051204 | 53 | 314 | 2.6 | 4.3 | 0.00 | 0.00 | 0.00 | 66 | 1016.2 |
| 20260505050804 | 53 | 315 | 2.6 | 4.3 | 0.00 | 0.00 | 0.00 | 66 | 1016.0 |
| 20260505050604 | 53 | 314 | 2.6 | 4.3 | 0.00 | 0.00 | 0.00 | 66 | 1016.0 |
| 20260505050204 | 53 | 314 | 2.6 | 4.3 | 0.00 | 0.00 | 0.00 | 66 | 1016.0 |
| 20260505041404 | 54 | 314 | 1.7 | 2.6 | 0.00 | 0.00 | 0.00 | 65 | 1015.9 |
| 20260505041204 | 54 | 314 | 1.7 | 2.6 | 0.00 | 0.00 | 0.00 | 65 | 1016.0 |
| 20260505041005 | 54 | 314 | 2.6 | 2.6 | 0.00 | 0.00 | 0.00 | 65 | 1016.0 |
| 20260505040604 | 54 | 314 | 2.6 | 2.6 | 0.00 | 0.00 | 0.00 | 65 | 1015.9 |
| 20260505040404 | 54 | 314 | 2.6 | 2.6 | 0.00 | 0.00 | 0.00 | 65 | 1016.0 |
| 20260505040204 | 54 | 314 | 2.6 | 2.6 | 0.00 | 0.00 | 0.00 | 65 | 1016.0 |
| 20260505040005 | 54 | 314 | 2.6 | 2.6 | 0.00 | 0.00 | 0.00 | 65 | 1015.9 |
| 20260505035804 | 54 | 314 | 2.6 | 2.6 | 0.00 | 0.00 | 0.00 | 65 | 1016.0 |
| 20260505035604 | 55 | 314 | 2.6 | 2.6 | 0.00 | 0.00 | 0.00 | 65 | 1016.0 |
| 20260505035404 | 55 | 314 | 2.6 | 2.6 | 0.00 | 0.00 | 0.00 | 65 | 1015.8 |
| 20260505035204 | 55 | 314 | 2.6 | 2.6 | 0.00 | 0.00 | 0.00 | 65 | 1015.9 |
| 20260505035004 | 55 | 314 | 2.6 | 2.6 | 0.00 | 0.00 | 0.00 | 65 | 1016.0 |
| 20260505034804 | 55 | 314 | 2.6 | 2.6 | 0.00 | 0.00 | 0.00 | 65 | 1015.9 |
| 20260505034604 | 55 | 314 | 2.6 | 2.6 | 0.00 | 0.00 | 0.00 | 65 | 1016.0 |
| 20260505034404 | 55 | 314 | 2.6 | 2.6 | 0.00 | 0.00 | 0.00 | 65 | 1015.9 |
| 20260505034204 | 55 | 314 | 2.6 | 2.6 | 0.00 | 0.00 | 0.00 | 64 | 1016.1 |
| 20260505034004 | 55 | 314 | 2.6 | 2.6 | 0.00 | 0.00 | 0.00 | 64 | 1016.1 |
| 20260505033804 | 55 | 314 | 2.6 | 4.3 | 0.00 | 0.00 | 0.00 | 64 | 1016.0 |
| 20260505033604 | 55 | 314 | 2.6 | 4.3 | 0.00 | 0.00 | 0.00 | 64 | 1015.9 |
| 20260505033405 | 55 | 314 | 2.6 | 4.3 | 0.00 | 0.00 | 0.00 | 64 | 1016.1 |
| 20260505033005 | 55 | 320 | 2.6 | 4.3 | 0.00 | 0.00 | 0.00 | 64 | 1016.0 |
| 20260505032804 | 55 | 320 | 1.7 | 2.6 | 0.00 | 0.00 | 0.00 | 64 | 1015.9 |
| 20260505032604 | 55 | 320 | 1.7 | 2.6 | 0.00 | 0.00 | 0.00 | 64 | 1016.1 |
| 20260505032204 | 55 | 321 | 1.7 | 2.6 | 0.00 | 0.00 | 0.00 | 64 | 1016.0 |
| 20260505031604 | 55 | 314 | 1.7 | 2.6 | 0.00 | 0.00 | 0.00 | 64 | 1016.3 |
| 20260505031404 | 55 | 314 | 1.7 | 2.6 | 0.00 | 0.00 | 0.00 | 64 | 1016.1 |
| 20260505031204 | 55 | 314 | 1.7 | 2.6 | 0.00 | 0.00 | 0.00 | 64 | 1016.2 |
| 20260505031005 | 55 | 314 | 1.7 | 2.6 | 0.00 | 0.00 | 0.00 | 64 | 1016.2 |
| 20260505030804 | 55 | 315 | 1.7 | 2.6 | 0.00 | 0.00 | 0.00 | 64 | 1016.0 |
| 20260505030604 | 55 | 314 | 1.7 | 2.6 | 0.00 | 0.00 | 0.00 | 64 | 1016.1 |
| 20260505030404 | 55 | 314 | 1.7 | 2.6 | 0.00 | 0.00 | 0.00 | 64 | 1016.3 |
| 20260505030204 | 56 | 314 | 1.7 | 2.6 | 0.00 | 0.00 | 0.00 | 64 | 1016.2 |
| 20260505025804 | 56 | 315 | 1.7 | 2.6 | 0.00 | 0.00 | 0.00 | 64 | 1016.2 |
| 20260505025604 | 56 | 315 | 1.7 | 2.6 | 0.00 | 0.00 | 0.00 | 64 | 1016.1 |
| 20260505025404 | 56 | 315 | 1.7 | 2.6 | 0.00 | 0.00 | 0.00 | 64 | 1016.1 |
| 20260505025204 | 56 | 315 | 1.7 | 2.6 | 0.00 | 0.00 | 0.00 | 64 | 1016.2 |
| 20260505025004 | 56 | 315 | 1.7 | 2.6 | 0.00 | 0.00 | 0.00 | 64 | 1016.2 |
| 20260505024605 | 56 | 315 | 1.7 | 2.6 | 0.00 | 0.00 | 0.00 | 64 | 1016.2 |
| 20260505024204 | 56 | 315 | 1.7 | 1.7 | 0.00 | 0.00 | 0.00 | 63 | 1016.1 |
| 20260505024004 | 56 | 314 | 1.7 | 1.7 | 0.00 | 0.00 | 0.00 | 63 | 1016.2 |
| 20260505023805 | 56 | 315 | 1.7 | 1.7 | 0.00 | 0.00 | 0.00 | 63 | 1016.2 |
| 20260505023604 | 56 | 314 | 1.7 | 1.7 | 0.00 | 0.00 | 0.00 | 63 | 1016.3 |
| 20260505023404 | 56 | 314 | 1.7 | 1.7 | 0.00 | 0.00 | 0.00 | 63 | 1016.2 |
| 20260505023204 | 56 | 315 | 1.7 | 1.7 | 0.00 | 0.00 | 0.00 | 63 | 1016.1 |
| 20260505023004 | 56 | 315 | 1.7 | 2.6 | 0.00 | 0.00 | 0.00 | 63 | 1016.0 |
| 20260505022404 | 56 | 307 | 2.6 | 2.6 | 0.00 | 0.00 | 0.00 | 64 | 1016.0 |
| 20260505022204 | 56 | 307 | 2.6 | 2.6 | 0.00 | 0.00 | 0.00 | 64 | 1016.1 |
| 20260505022005 | 56 | 307 | 2.6 | 2.6 | 0.00 | 0.00 | 0.00 | 64 | 1016.2 |
| 20260505021804 | 56 | 307 | 1.7 | 2.6 | 0.00 | 0.00 | 0.00 | 64 | 1016.0 |
| 20260505021604 | 56 | 314 | 1.7 | 2.6 | 0.00 | 0.00 | 0.00 | 63 | 1016.2 |
| 20260505021204 | 56 | 314 | 1.7 | 2.6 | 0.00 | 0.00 | 0.00 | 63 | 1016.1 |
| 20260505021004 | 56 | 314 | 1.7 | 2.6 | 0.00 | 0.00 | 0.00 | 63 | 1016.0 |
| 20260505020804 | 56 | 314 | 1.7 | 2.6 | 0.00 | 0.00 | 0.00 | 63 | 1016.1 |
| 20260505020604 | 56 | 314 | 1.7 | 2.6 | 0.00 | 0.00 | 0.00 | 63 | 1016.0 |
| 20260505020404 | 56 | 314 | 1.7 | 2.6 | 0.00 | 0.00 | 0.00 | 63 | 1015.9 |
| 20260505020004 | 57 | 315 | 1.7 | 2.6 | 0.00 | 0.00 | 0.00 | 62 | 1015.9 |
| 20260505015804 | 57 | 315 | 1.7 | 1.7 | 0.00 | 0.00 | 0.00 | 62 | 1015.9 |
| 20260505015604 | 57 | 314 | 1.7 | 2.6 | 0.00 | 0.00 | 0.00 | 62 | 1015.8 |
| 20260505015204 | 57 | 314 | 1.7 | 2.6 | 0.00 | 0.00 | 0.00 | 62 | 1015.8 |
| 20260505015005 | 57 | 314 | 1.7 | 2.6 | 0.00 | 0.00 | 0.00 | 62 | 1015.9 |
| 20260505014804 | 57 | 314 | 1.7 | 2.6 | 0.00 | 0.00 | 0.00 | 61 | 1015.9 |
| 20260505014604 | 58 | 306 | 1.7 | 2.6 | 0.00 | 0.00 | 0.00 | 61 | 1015.8 |
| 20260505014404 | 58 | 299 | 1.7 | 2.6 | 0.00 | 0.00 | 0.00 | 61 | 1015.8 |
| 20260505014204 | 58 | 299 | 1.7 | 2.6 | 0.00 | 0.00 | 0.00 | 61 | 1015.8 |
| 20260505014004 | 58 | 292 | 1.7 | 2.6 | 0.00 | 0.00 | 0.00 | 61 | 1015.8 |
| 20260505013804 | 58 | 294 | 2.6 | 2.6 | 0.00 | 0.00 | 0.00 | 61 | 1015.9 |
| 20260505013604 | 58 | 302 | 2.6 | 2.6 | 0.00 | 0.00 | 0.00 | 62 | 1015.9 |
| 20260505013405 | 58 | 307 | 1.7 | 2.6 | 0.00 | 0.00 | 0.00 | 61 | 1015.8 |
| 20260505013204 | 58 | 307 | 1.7 | 2.6 | 0.00 | 0.00 | 0.00 | 61 | 1015.6 |
| 20260505012804 | 58 | 315 | 1.7 | 2.6 | 0.00 | 0.00 | 0.00 | 61 | 1015.8 |
| 20260505012404 | 58 | 314 | 1.7 | 2.6 | 0.00 | 0.00 | 0.00 | 61 | 1015.6 |
| 20260505012204 | 59 | 315 | 1.7 | 2.6 | 0.00 | 0.00 | 0.00 | 60 | 1015.5 |
| 20260505011604 | 59 | 314 | 1.7 | 2.6 | 0.00 | 0.00 | 0.00 | 60 | 1015.5 |
| 20260505011004 | 60 | 314 | 0.9 | 2.6 | 0.00 | 0.00 | 0.00 | 59 | 1015.4 |
| 20260505010804 | 60 | 314 | 0.9 | 2.6 | 0.00 | 0.00 | 0.00 | 59 | 1015.6 |
| 20260505010404 | 61 | 0 | 0.0 | 0.0 | 0.00 | 0.00 | 0.00 | 58 | 1015.6 |
| 20260505010005 | 61 | 0 | 0.0 | 0.0 | 0.00 | 0.00 | 0.00 | 56 | 1015.6 |
| 20260505005804 | 61 | 0 | 0.0 | 0.0 | 0.00 | 0.00 | 0.00 | 55 | 1015.6 |
| 20260505005604 | 62 | 0 | 0.0 | 0.0 | 0.00 | 0.00 | 0.00 | 51 | 1015.5 |
| 20260505005404 | 62 | 0 | 0.0 | 0.0 | 0.00 | 0.00 | 0.00 | 51 | 1015.6 |
| 20260505005204 | 62 | 0 | 0.0 | 0.0 | 0.00 | 0.00 | 0.00 | 51 | 1015.5 |
| 20260505005004 | 62 | 0 | 0.0 | 0.0 | 0.00 | 0.00 | 0.00 | 51 | 1015.5 |
| 20260505004804 | 62 | 0 | 0.0 | 0.0 | 0.00 | 0.00 | 0.00 | 51 | 1015.6 |
| 20260505004604 | 63 | 0 | 0.0 | 0.0 | 0.00 | 0.00 | 0.00 | 50 | 1015.6 |
| 20260505004405 | 63 | 314 | 0.0 | 1.7 | 0.00 | 0.00 | 0.00 | 50 | 1015.5 |
| 20260505004005 | 63 | 314 | 0.9 | 1.7 | 0.00 | 0.00 | 0.00 | 49 | 1015.5 |
| 20260505003804 | 63 | 320 | 0.9 | 1.7 | 0.00 | 0.00 | 0.00 | 49 | 1015.4 |
| 20260505003604 | 63 | 320 | 0.9 | 2.6 | 0.00 | 0.00 | 0.00 | 48 | 1015.4 |
| 20260505003404 | 64 | 315 | 0.9 | 2.6 | 0.00 | 0.00 | 0.00 | 47 | 1015.5 |
| 20260505003204 | 64 | 300 | 1.7 | 2.6 | 0.00 | 0.00 | 0.00 | 47 | 1015.4 |
| 20260505003004 | 64 | 298 | 1.7 | 2.6 | 0.00 | 0.00 | 0.00 | 47 | 1015.3 |
| 20260505002604 | 64 | 284 | 2.6 | 4.3 | 0.00 | 0.00 | 0.00 | 46 | 1015.3 |
| 20260505002405 | 64 | 281 | 2.6 | 4.3 | 0.00 | 0.00 | 0.00 | 46 | 1015.5 |
| 20260505002005 | 65 | 277 | 2.6 | 4.3 | 0.00 | 0.00 | 0.00 | 45 | 1015.4 |
| 20260505001804 | 65 | 275 | 2.6 | 4.3 | 0.00 | 0.00 | 0.00 | 45 | 1015.4 |
| 20260505001604 | 65 | 275 | 2.6 | 4.3 | 0.00 | 0.00 | 0.00 | 45 | 1015.3 |
| 20260505001204 | 65 | 271 | 3.5 | 4.3 | 0.00 | 0.00 | 0.00 | 44 | 1015.3 |
| 20260505001004 | 65 | 277 | 2.6 | 4.3 | 0.00 | 0.00 | 0.00 | 44 | 1015.3 |
| 20260505000805 | 65 | 280 | 2.6 | 4.3 | 0.00 | 0.00 | 0.00 | 44 | 1015.3 |
| 20260505000604 | 65 | 287 | 2.6 | 4.3 | 0.00 | 0.00 | 0.00 | 44 | 1015.4 |
| 20260505000406 | 65 | 288 | 3.5 | 5.2 | 0.00 | 0.00 | 0.00 | 44 | 1015.3 |
| 20260504235804 | 66 | 278 | 2.6 | 5.2 | 0.00 | 0.00 | 0.00 | 43 | 1015.4 |
| 20260504235604 | 66 | 271 | 2.6 | 6.1 | 0.00 | 0.00 | 0.00 | 43 | 1015.5 |
| 20260504235404 | 66 | 267 | 2.6 | 6.1 | 0.00 | 0.00 | 0.00 | 43 | 1015.4 |
| 20260504235204 | 66 | 263 | 3.5 | 6.1 | 0.00 | 0.00 | 0.00 | 43 | 1015.3 |
| 20260504235004 | 66 | 264 | 4.3 | 7.0 | 0.00 | 0.00 | 0.00 | 42 | 1015.3 |
| 20260504234804 | 66 | 265 | 4.3 | 7.0 | 0.00 | 0.00 | 0.00 | 42 | 1015.3 |
| 20260504234204 | 66 | 270 | 4.3 | 7.0 | 0.00 | 0.00 | 0.00 | 42 | 1015.4 |
| 20260504233804 | 67 | 277 | 4.3 | 7.0 | 0.00 | 0.00 | 0.00 | 42 | 1015.3 |
| 20260504233404 | 67 | 281 | 4.3 | 7.0 | 0.00 | 0.00 | 0.00 | 41 | 1015.3 |
| 20260504233204 | 67 | 283 | 4.3 | 7.0 | 0.00 | 0.00 | 0.00 | 41 | 1015.3 |
| 20260504233004 | 67 | 279 | 4.3 | 7.0 | 0.00 | 0.00 | 0.00 | 41 | 1015.3 |
| 20260504232804 | 67 | 276 | 4.3 | 7.0 | 0.00 | 0.00 | 0.00 | 41 | 1015.3 |
| 20260504232404 | 68 | 269 | 4.3 | 6.1 | 0.00 | 0.00 | 0.00 | 41 | 1015.2 |
| 20260504232203 | 68 | 267 | 3.5 | 6.1 | 0.00 | 0.00 | 0.00 | 41 | 1015.4 |
| 20260504231604 | 68 | 270 | 3.5 | 6.1 | 0.00 | 0.00 | 0.00 | 41 | 1015.3 |
| 20260504231204 | 69 | 260 | 3.5 | 6.1 | 0.00 | 0.00 | 0.00 | 41 | 1015.3 |
| 20260504231004 | 69 | 264 | 3.5 | 6.1 | 0.00 | 0.00 | 0.00 | 41 | 1015.2 |
| 20260504230804 | 69 | 252 | 3.5 | 6.1 | 0.00 | 0.00 | 0.00 | 41 | 1015.3 |
| 20260504230404 | 69 | 257 | 3.5 | 6.1 | 0.00 | 0.00 | 0.00 | 41 | 1015.1 |
| 20260504230204 | 69 | 259 | 3.5 | 6.1 | 0.00 | 0.00 | 0.00 | 40 | 1015.1 |
| 20260504230005 | 69 | 245 | 4.3 | 6.1 | 0.00 | 0.00 | 0.00 | 40 | 1015.1 |
| 20260504225804 | 69 | 252 | 4.3 | 6.1 | 0.00 | 0.00 | 0.00 | 40 | 1015.0 |
| 20260504225404 | 69 | 230 | 3.5 | 6.1 | 0.00 | 0.00 | 0.00 | 40 | 1015.1 |
| 20260504224803 | 69 | 236 | 3.5 | 6.1 | 0.00 | 0.00 | 0.00 | 36 | 1015.0 |
| 20260504224604 | 69 | 247 | 3.5 | 6.1 | 0.00 | 0.00 | 0.00 | 36 | 1015.1 |
| 20260504224404 | 69 | 267 | 4.3 | 7.0 | 0.00 | 0.00 | 0.00 | 35 | 1015.3 |
| 20260504224204 | 69 | 274 | 4.3 | 7.0 | 0.00 | 0.00 | 0.00 | 34 | 1015.1 |
| 20260504224004 | 69 | 273 | 5.2 | 7.0 | 0.00 | 0.00 | 0.00 | 34 | 1015.3 |
| 20260504223805 | 69 | 271 | 5.2 | 7.0 | 0.00 | 0.00 | 0.00 | 33 | 1015.2 |
| 20260504223604 | 69 | 272 | 5.2 | 7.0 | 0.00 | 0.00 | 0.00 | 33 | 1015.3 |
| 20260504222404 | 70 | 267 | 5.2 | 9.6 | 0.00 | 0.00 | 0.00 | 30 | 1015.4 |
| 20260504222204 | 70 | 269 | 5.2 | 9.6 | 0.00 | 0.00 | 0.00 | 30 | 1015.4 |
| 20260504222004 | 70 | 269 | 6.1 | 9.6 | 0.00 | 0.00 | 0.00 | 30 | 1015.3 |
| 20260504221604 | 70 | 281 | 6.1 | 8.7 | 0.00 | 0.00 | 0.00 | 30 | 1015.3 |
| 20260504221403 | 70 | 285 | 6.1 | 8.7 | 0.00 | 0.00 | 0.00 | 30 | 1015.3 |
| 20260504221204 | 70 | 283 | 5.2 | 8.7 | 0.00 | 0.00 | 0.00 | 27 | 1015.4 |
| 20260504221004 | 70 | 277 | 5.2 | 8.7 | 0.00 | 0.00 | 0.00 | 28 | 1015.3 |
| 20260504220604 | 70 | 263 | 4.3 | 7.0 | 0.00 | 0.00 | 0.00 | 30 | 1015.3 |
| 20260504220204 | 70 | 259 | 4.3 | 7.8 | 0.00 | 0.00 | 0.00 | 30 | 1015.3 |
| 20260504220004 | 70 | 258 | 4.3 | 7.8 | 0.00 | 0.00 | 0.00 | 30 | 1015.1 |
| 20260504215804 | 70 | 258 | 4.3 | 7.8 | 0.00 | 0.00 | 0.00 | 30 | 1015.4 |
| 20260504215604 | 70 | 250 | 4.3 | 7.8 | 0.00 | 0.00 | 0.00 | 30 | 1015.2 |
| 20260504215404 | 70 | 251 | 5.2 | 7.8 | 0.00 | 0.00 | 0.00 | 27 | 1015.4 |
| 20260504215204 | 70 | 252 | 4.3 | 7.0 | 0.00 | 0.00 | 0.00 | 27 | 1015.4 |
| 20260504215004 | 71 | 267 | 5.2 | 7.0 | 0.00 | 0.00 | 0.00 | 28 | 1015.2 |
| 20260504214804 | 71 | 276 | 5.2 | 7.0 | 0.00 | 0.00 | 0.00 | 29 | 1015.2 |
| 20260504214604 | 71 | 288 | 4.3 | 7.0 | 0.00 | 0.00 | 0.00 | 30 | 1015.3 |
| 20260504214403 | 71 | 292 | 4.3 | 7.0 | 0.00 | 0.00 | 0.00 | 30 | 1015.3 |
| 20260504214204 | 71 | 294 | 4.3 | 7.0 | 0.00 | 0.00 | 0.00 | 30 | 1015.3 |
| 20260504214005 | 71 | 285 | 4.3 | 7.8 | 0.00 | 0.00 | 0.00 | 31 | 1015.2 |
| 20260504213804 | 71 | 276 | 4.3 | 7.8 | 0.00 | 0.00 | 0.00 | 31 | 1015.1 |
| 20260504213604 | 71 | 273 | 5.2 | 7.8 | 0.00 | 0.00 | 0.00 | 31 | 1015.2 |
| 20260504213404 | 71 | 271 | 5.2 | 7.8 | 0.00 | 0.00 | 0.00 | 31 | 1015.1 |
| 20260504213204 | 71 | 275 | 5.2 | 7.8 | 0.00 | 0.00 | 0.00 | 31 | 1015.2 |
| 20260504213004 | 72 | 270 | 5.2 | 7.8 | 0.00 | 0.00 | 0.00 | 31 | 1015.1 |
| 20260504212804 | 72 | 268 | 5.2 | 7.8 | 0.00 | 0.00 | 0.00 | 31 | 1015.2 |
| 20260504212604 | 72 | 267 | 5.2 | 7.8 | 0.00 | 0.00 | 0.00 | 31 | 1015.1 |
| 20260504212204 | 72 | 259 | 5.2 | 7.8 | 0.00 | 0.00 | 0.00 | 30 | 1015.2 |
| 20260504212005 | 73 | 258 | 5.2 | 7.8 | 0.00 | 0.00 | 0.00 | 30 | 1015.3 |
| 20260504211804 | 72 | 257 | 4.3 | 7.8 | 0.00 | 0.00 | 0.00 | 30 | 1015.3 |
| 20260504211604 | 73 | 264 | 4.3 | 7.8 | 0.00 | 0.00 | 0.00 | 29 | 1015.3 |
| 20260504211404 | 73 | 264 | 4.3 | 7.8 | 0.00 | 0.00 | 0.00 | 30 | 1015.1 |
| 20260504211204 | 73 | 256 | 3.5 | 6.1 | 0.00 | 0.00 | 0.00 | 30 | 1015.2 |
| 20260504211004 | 73 | 247 | 3.5 | 6.1 | 0.00 | 0.00 | 0.00 | 29 | 1015.2 |
| 20260504210805 | 73 | 234 | 3.5 | 6.1 | 0.00 | 0.00 | 0.00 | 28 | 1015.3 |
| 20260504210604 | 74 | 206 | 3.5 | 5.2 | 0.00 | 0.00 | 0.00 | 27 | 1015.2 |
| 20260504210405 | 74 | 197 | 3.5 | 5.2 | 0.00 | 0.00 | 0.00 | 26 | 1015.2 |
| 20260504210005 | 74 | 225 | 3.5 | 6.1 | 0.00 | 0.00 | 0.00 | 25 | 1015.2 |
| 20260504205804 | 74 | 237 | 3.5 | 6.1 | 0.00 | 0.00 | 0.00 | 25 | 1015.3 |
| 20260504205604 | 74 | 244 | 3.5 | 6.1 | 0.00 | 0.00 | 0.00 | 25 | 1015.3 |
| 20260504205404 | 74 | 251 | 3.5 | 6.1 | 0.00 | 0.00 | 0.00 | 25 | 1015.3 |
| 20260504205004 | 74 | 243 | 3.5 | 6.1 | 0.00 | 0.00 | 0.00 | 25 | 1015.3 |
| 20260504204803 | 75 | 230 | 3.5 | 6.1 | 0.00 | 0.00 | 0.00 | 24 | 1015.3 |
| 20260504204404 | 75 | 209 | 3.5 | 8.7 | 0.00 | 0.00 | 0.00 | 23 | 1015.4 |
| 20260504204204 | 75 | 218 | 3.5 | 8.7 | 0.00 | 0.00 | 0.00 | 23 | 1015.4 |
| 20260504204004 | 75 | 245 | 3.5 | 8.7 | 0.00 | 0.00 | 0.00 | 24 | 1015.4 |
| 20260504203805 | 75 | 284 | 3.5 | 8.7 | 0.00 | 0.00 | 0.00 | 24 | 1015.4 |
| 20260504203604 | 75 | 293 | 3.5 | 8.7 | 0.00 | 0.00 | 0.00 | 25 | 1015.6 |
| 20260504203404 | 76 | 303 | 3.5 | 6.1 | 0.00 | 0.00 | 0.00 | 25 | 1015.5 |
| 20260504203204 | 76 | 281 | 3.5 | 6.1 | 0.00 | 0.00 | 0.00 | 25 | 1015.6 |
| 20260504203005 | 76 | 255 | 3.5 | 6.1 | 0.00 | 0.00 | 0.00 | 24 | 1015.6 |
| 20260504202804 | 76 | 228 | 3.5 | 6.1 | 0.00 | 0.00 | 0.00 | 26 | 1015.5 |
| 20260504202604 | 76 | 232 | 3.5 | 6.1 | 0.00 | 0.00 | 0.00 | 29 | 1015.6 |
| 20260504202404 | 76 | 237 | 3.5 | 6.1 | 0.00 | 0.00 | 0.00 | 28 | 1015.6 |
| 20260504202203 | 76 | 247 | 3.5 | 7.0 | 0.00 | 0.00 | 0.00 | 29 | 1015.8 |
| 20260504202004 | 76 | 252 | 3.5 | 7.0 | 0.00 | 0.00 | 0.00 | 30 | 1015.6 |
| 20260504201804 | 75 | 262 | 4.3 | 8.7 | 0.00 | 0.00 | 0.00 | 30 | 1015.7 |
| 20260504201604 | 75 | 268 | 5.2 | 8.7 | 0.00 | 0.00 | 0.00 | 30 | 1015.6 |
| 20260504201405 | 75 | 270 | 5.2 | 8.7 | 0.00 | 0.00 | 0.00 | 30 | 1015.4 |
| 20260504201005 | 76 | 253 | 5.2 | 8.7 | 0.00 | 0.00 | 0.00 | 30 | 1015.4 |
| 20260504200804 | 77 | 233 | 5.2 | 8.7 | 0.00 | 0.00 | 0.00 | 28 | 1015.8 |
| 20260504200404 | 77 | 231 | 5.2 | 7.0 | 0.00 | 0.00 | 0.00 | 30 | 1015.6 |
| 20260504200004 | 77 | 239 | 4.3 | 7.8 | 0.00 | 0.00 | 0.00 | 26 | 1015.8 |
| 20260504195804 | 78 | 245 | 4.3 | 7.8 | 0.00 | 0.00 | 0.00 | 25 | 1016.0 |
| 20260504195604 | 79 | 234 | 3.5 | 7.8 | 0.00 | 0.00 | 0.00 | 26 | 1015.6 |
| 20260504195403 | 79 | 238 | 3.5 | 7.8 | 0.00 | 0.00 | 0.00 | 28 | 1016.0 |
| 20260504195204 | 79 | 237 | 3.5 | 7.8 | 0.00 | 0.00 | 0.00 | 29 | 1015.9 |